[[{"header":{"parameterUnit":"m.s-1","parameterCategory":1,"la1":30.2991,"la2":30.254,"lo1":-89.0895,"lo2":-89.0444,"dy":0.0017,"dx":0.0017,"nx":28,"ny":28,"refTime":"2024-06-24T03:00:00:Z","depth":0,"parameterNumber":2,"parameterNumberName":"U-component_of_WINDS"},"data":[0,0,0,0,0,0,0,0,0,0,0,0,0,0,0,0,0,0,0,0,0,0,0,0,0,0,0,0,0,0,0,0,0,0,0,0,0,0,0,0,0,0,0,0,0,0,0,0,0,0,0,0,0,0,0,0,0,0,1.4627,1.4626,0,1.4585,1.4584,1.4584,1.4541,1.4541,1.454,1.454,1.4493,1.4492,1.4491,0,0,0,0,0,0,0,0,0,0,0,0,0,1.4669,1.4668,1.4627,1.4626,1.4626,1.4585,1.4584,1.4584,1.4541,1.4541,1.454,1.4539,1.4493,1.4492,1.4491,0,0,0,0,0,0,0,0,0,0,0,0,0,1.4641,1.4668,1.4627,1.46,1.4597,1.4585,1.4584,1.4584,1.4542,1.4541,1.454,1.4539,1.4493,1.4492,1.4491,1.4502,0,0,1.4488,1.4488,0,0,0,0,0,0,0,0,1.4643,1.464,1.4604,1.4602,1.4599,1.4568,1.4582,1.4556,1.4542,1.4562,1.454,1.4539,1.4518,1.4515,1.4509,1.4499,1.4497,1.4488,1.4487,1.4487,1.4487,0,0,0,0,0,0,0,1.4645,1.4641,1.461,1.4604,1.46,1.4589,1.4584,1.4577,1.4545,1.4561,1.4557,1.4553,1.4516,1.451,1.4507,1.4497,1.4488,1.4487,1.4486,1.4486,1.4495,1.4496,0,0,0,0,0,0,1.4651,1.4643,1.4611,1.4609,1.4619,1.4589,1.4584,1.4578,1.4545,1.454,1.4554,1.4551,1.4512,1.4509,1.4506,1.4516,1.4487,1.4486,1.4485,1.4494,1.4495,1.4496,0,0,0,0,0,0,1.4652,1.4649,1.4613,1.4625,1.462,1.4589,1.4584,1.4578,1.4571,1.4541,1.4534,1.4553,1.4511,1.4507,1.4504,1.4513,1.4485,1.4484,1.4493,1.4495,1.4496,1.4536,0,0,0,0,0,0,1.4654,1.4649,1.4653,1.4626,1.4619,1.4612,1.4584,1.4578,1.457,1.4566,1.4538,1.4533,1.451,1.4505,1.4503,1.4511,1.4484,1.4492,1.4494,1.4496,1.4533,1.4538,1.4543,0,0,0,0,0,1.4655,1.4665,1.4653,1.465,1.4623,1.4613,1.4609,1.4584,1.4571,1.4574,1.4555,1.4534,1.4514,1.4505,1.4502,1.451,1.4491,1.4493,1.4495,1.4531,1.4537,1.4543,0,0,0,0,0,0,1.4692,1.4661,1.4647,1.4649,1.4634,1.4606,1.4609,1.4591,1.4579,1.4576,1.4545,1.4539,1.4539,1.4525,1.4516,1.452,1.45,1.4501,1.4528,1.4534,1.4538,1.454,1.4483,0,0,0,0,0,1.4701,1.4696,1.4668,1.4672,1.4665,1.4639,1.4633,1.4616,1.4599,1.4592,1.4572,1.4555,1.4546,1.4539,1.4528,1.4533,1.4526,1.4537,1.4542,1.4546,1.4546,1.4548,1.4553,1.4503,1.4503,1.4503,0,0,1.4718,1.47,1.4698,1.4679,1.4665,1.466,1.4633,1.4629,1.4624,1.459,1.4586,1.4572,1.4551,1.4552,1.4551,1.454,1.4559,1.4548,1.4552,1.455,1.455,1.4555,1.4559,1.4504,1.4504,1.4504,0,0,1.4745,1.4732,1.4734,1.4722,1.4703,1.4685,1.4686,1.4661,1.4651,1.4647,1.4622,1.4616,1.4599,1.4586,1.4577,1.4605,1.4584,1.4602,1.4625,1.4627,1.4631,1.4634,1.4643,1.4646,1.4604,1.4604,1.4604,0,1.4768,1.476,1.4737,1.4734,1.4726,1.4699,1.47,1.4689,1.4667,1.4662,1.4651,1.4631,1.4616,1.4613,1.462,1.4614,1.4613,1.4603,1.4632,1.4635,1.4638,1.4646,1.465,1.4606,1.4606,1.4605,1.4605,0,1.4789,1.4784,1.4788,1.4769,1.4762,1.4761,1.4738,1.4734,1.4719,1.4703,1.4699,1.468,1.4666,1.4664,1.4648,1.466,1.4654,1.4638,1.4617,1.4645,1.4652,1.4655,1.4609,1.4608,1.4607,1.4607,0,0,1.4834,1.4806,1.4807,1.4799,1.4778,1.4773,1.4772,1.4759,1.4756,1.4743,1.4741,1.473,1.4716,1.4706,1.4689,1.4691,1.4714,1.4675,1.4674,1.4682,1.4725,1.4735,1.4739,1.4702,1.4702,1.4703,1.4726,0,1.4857,1.4854,1.4834,1.4837,1.4832,1.4807,1.4807,1.4793,1.478,1.4773,1.4758,1.475,1.4733,1.4727,1.4728,1.4711,1.4721,1.4709,1.4698,1.4698,1.4701,1.4743,1.4753,1.4776,1.4729,1.4729,1.473,0,1.4882,1.4872,1.4875,1.4855,1.4852,1.4852,1.484,1.4834,1.482,1.4809,1.4801,1.4782,1.478,1.4763,1.4759,1.4751,1.4746,1.4737,1.4738,1.4733,1.4713,1.4738,1.4783,1.4786,1.4734,1.4734,1.4733,0,1.4914,1.4902,1.4901,1.4895,1.4873,1.4873,1.4864,1.4848,1.4843,1.4832,1.4828,1.4818,1.4811,1.4803,1.4783,1.4772,1.4781,1.4762,1.4772,1.4772,1.4772,1.4772,1.4815,1.4773,1.4773,1.4773,1.4773,0,1.4939,1.4941,1.4916,1.4915,1.4917,1.4896,1.4898,1.4886,1.4874,1.487,1.4849,1.4847,1.4821,1.4815,1.48,1.4799,1.4796,1.4787,1.4783,1.4788,1.4789,1.4782,1.4779,1.4774,1.4773,1.4773,1.4773,0,1.4973,1.4956,1.4955,1.4935,1.493,1.4932,1.4915,1.4914,1.4901,1.4897,1.4895,1.4874,1.4866,1.4846,1.4833,1.4823,1.4826,1.4819,1.4831,1.4828,1.4838,1.4837,1.4876,1.488,1.4838,1.4838,1.4839,0,1.499,1.4991,1.4972,1.4969,1.4961,1.4957,1.4952,1.4932,1.4927,1.4912,1.4913,1.4905,1.4897,1.4887,1.4869,1.486,1.4851,1.4866,1.4849,1.4855,1.4849,1.4849,1.4849,1.4868,1.4869,1.4869,1.487,0,1.502,1.5012,1.5006,1.4998,1.4993,1.4985,1.4976,1.4975,1.4953,1.4949,1.4942,1.4936,1.4925,1.4917,1.4905,1.4895,1.4878,1.4876,1.4877,1.4881,1.4888,1.4883,1.4839,1.4874,1.4874,1.4873,1.4873,1.4873,1.5044,1.5045,1.5032,1.5027,1.5019,1.5011,1.501,1.4997,1.4992,1.4981,1.4971,1.4965,1.4952,1.4936,1.4927,1.4923,1.4914,1.4916,1.4916,1.4917,1.4919,1.4891,1.4921,1.4921,1.4921,1.492,1.492,0,1.5072,1.5064,1.506,1.5048,1.5044,1.5032,1.5022,1.5019,1.5015,1.5006,1.4999,1.4992,1.4985,1.4969,1.496,1.496,1.4952,1.4958,1.4957,1.4954,1.4928,1.4927,1.4965,1.4965,1.4965,1.4965,1.4965,1.4965,1.5086,1.5086,1.5078,1.5074,1.5066,1.5061,1.5057,1.505,1.5042,1.5036,1.503,1.5021,1.5009,1.5,1.4993,1.4988,1.4985,1.4993,1.4986,1.4961,1.4956,1.4952,1.4951,1.4993,1.4993,1.5013,1.5013,1.5013]},{"header":{"parameterUnit":"m.s-1","parameterCategory":1,"la1":30.2991,"la2":30.254,"lo1":-89.0895,"lo2":-89.0444,"dy":0.0017,"dx":0.0017,"nx":28,"ny":28,"refTime":"2024-06-24T03:00:00:Z","depth":0,"parameterNumber":3,"parameterNumberName":"V-component_of_WINDS"},"data":[0,0,0,0,0,0,0,0,0,0,0,0,0,0,0,0,0,0,0,0,0,0,0,0,0,0,0,0,0,0,0,0,0,0,0,0,0,0,0,0,0,0,0,0,0,0,0,0,0,0,0,0,0,0,0,0,0,0,2.3541,2.3542,0,2.3688,2.3689,2.3691,2.3773,2.3774,2.3774,2.3774,2.3919,2.3923,2.3926,0,0,0,0,0,0,0,0,0,0,0,0,0,2.3328,2.3332,2.3541,2.3543,2.3544,2.3687,2.3689,2.3691,2.3773,2.3774,2.3774,2.3774,2.3918,2.3922,2.3927,0,0,0,0,0,0,0,0,0,0,0,0,0,2.3442,2.3333,2.354,2.3603,2.361,2.3687,2.3689,2.3692,2.3773,2.3774,2.3774,2.3774,2.3917,2.3922,2.3927,2.3953,0,0,2.3944,2.3946,0,0,0,0,0,0,0,0,2.3435,2.345,2.3592,2.3598,2.3607,2.3713,2.3668,2.3779,2.3773,2.3711,2.3774,2.3775,2.385,2.3861,2.3887,2.3959,2.3966,2.3944,2.3948,2.395,2.3952,0,0,0,0,0,0,0,2.3427,2.3444,2.3599,2.3594,2.3603,2.3622,2.3639,2.3689,2.3776,2.3716,2.3723,2.3739,2.3854,2.3882,2.3891,2.3968,2.3944,2.3949,2.3952,2.3955,2.4068,2.4068,0,0,0,0,0,0,2.341,2.3437,2.3594,2.3603,2.352,2.3626,2.3644,2.3678,2.3776,2.3791,2.3739,2.3742,2.3872,2.3885,2.3897,2.3933,2.395,2.3955,2.3958,2.4069,2.4068,2.4068,0,0,0,0,0,0,2.3405,2.3423,2.3588,2.3522,2.3544,2.3629,2.3666,2.3681,2.3709,2.3793,2.3808,2.3751,2.3873,2.3889,2.3939,2.394,2.3958,2.3962,2.4069,2.4068,2.4068,2.4006,0,0,0,0,0,0,2.3399,2.3421,2.3432,2.3521,2.3547,2.3628,2.3666,2.3683,2.3718,2.3725,2.3809,2.3823,2.3875,2.393,2.3944,2.3947,2.3967,2.4069,2.4069,2.4068,2.4008,2.4004,2.3999,0,0,0,0,0,2.3391,2.3408,2.3432,2.3451,2.3563,2.3628,2.3643,2.3704,2.3718,2.373,2.3784,2.382,2.3937,2.3934,2.3951,2.3956,2.4069,2.4069,2.4068,2.401,2.4004,2.4,0,0,0,0,0,0,2.3314,2.342,2.3449,2.3495,2.3553,2.3642,2.3659,2.3695,2.3748,2.3752,2.3823,2.3841,2.3884,2.3925,2.392,2.3985,2.4007,2.401,2.3957,2.3953,2.3948,2.3937,2.3971,0,0,0,0,0,2.3303,2.3349,2.3438,2.347,2.3498,2.3573,2.3603,2.3645,2.3707,2.3731,2.3788,2.3845,2.3895,2.3926,2.3976,2.4015,2.4034,2.4026,2.4021,2.4017,2.4019,2.4043,2.404,2.4066,2.4066,2.4066,0,0,2.328,2.3344,2.3367,2.3457,2.3506,2.355,2.3593,2.3637,2.3671,2.3737,2.3788,2.3832,2.39,2.3944,2.3967,2.398,2.4016,2.4017,2.4013,2.4017,2.4042,2.4039,2.4037,2.4066,2.4066,2.4066,0,0,2.3261,2.3313,2.3347,2.3396,2.347,2.352,2.3528,2.3613,2.3645,2.3698,2.3749,2.3789,2.3872,2.3919,2.3954,2.3953,2.3989,2.3967,2.3944,2.3966,2.3964,2.3963,2.3963,2.3962,2.3969,2.3968,2.3968,0,2.3222,2.3292,2.3358,2.3401,2.3439,2.3503,2.3537,2.358,2.3666,2.369,2.3704,2.3812,2.3862,2.3918,2.3918,2.3944,2.3955,2.3958,2.396,2.3959,2.3958,2.3959,2.3959,2.3965,2.3966,2.3966,2.3966,0,2.3241,2.3289,2.3307,2.3391,2.3431,2.3468,2.3539,2.3571,2.3609,2.3658,2.371,2.3773,2.3838,2.3854,2.3891,2.3916,2.3922,2.3946,2.397,2.3952,2.3954,2.3955,2.3961,2.3962,2.3963,2.3964,0,0,2.3177,2.3299,2.3304,2.3343,2.3431,2.3469,2.3509,2.3574,2.36,2.3657,2.3693,2.3763,2.3787,2.3826,2.3869,2.3888,2.3885,2.3911,2.3914,2.3904,2.3916,2.3897,2.3896,2.3909,2.3909,2.3909,2.391,0,2.3171,2.3248,2.331,2.3364,2.3409,2.3471,2.3506,2.3563,2.3609,2.3653,2.3703,2.3752,2.378,2.3804,2.3827,2.388,2.3888,2.3881,2.3941,2.3943,2.3923,2.3897,2.3877,2.3875,2.3911,2.3911,2.3912,0,2.3173,2.3231,2.329,2.3374,2.3395,2.3426,2.3491,2.3533,2.3598,2.363,2.3675,2.372,2.3764,2.3783,2.3845,2.3839,2.3867,2.3897,2.3899,2.3907,2.3926,2.3905,2.3876,2.3875,2.3913,2.3913,2.3913,0,2.3121,2.3213,2.3261,2.3292,2.3391,2.3412,2.3453,2.352,2.3555,2.3611,2.3635,2.3694,2.3727,2.3771,2.3831,2.3839,2.3887,2.391,2.3914,2.3913,2.3921,2.392,2.3897,2.3939,2.3939,2.3939,2.3939,0,2.3107,2.3141,2.3239,2.3268,2.3308,2.3377,2.3414,2.3461,2.352,2.3558,2.3615,2.3649,2.3726,2.3769,2.3816,2.386,2.3874,2.3901,2.3913,2.3896,2.3893,2.3916,2.3918,2.3939,2.3939,2.3939,2.3939,0,2.3055,2.3122,2.3178,2.3269,2.3292,2.3317,2.3394,2.3424,2.3474,2.3522,2.3537,2.3615,2.3669,2.3734,2.3808,2.3839,2.388,2.3897,2.3858,2.3865,2.3865,2.3865,2.3856,2.3859,2.3898,2.3897,2.3897,0,2.3042,2.307,2.3164,2.3195,2.3236,2.3285,2.3322,2.3392,2.3428,2.3505,2.3526,2.3585,2.3636,2.372,2.3782,2.3839,2.3859,2.3852,2.3868,2.385,2.3859,2.3857,2.386,2.3847,2.3847,2.3846,2.3846,0,2.3012,2.3044,2.3097,2.3161,2.3205,2.3258,2.3313,2.3335,2.3416,2.3453,2.3511,2.3551,2.3628,2.3686,2.3751,2.3793,2.3832,2.384,2.3844,2.3828,2.3804,2.3817,2.3847,2.384,2.3841,2.3841,2.3841,2.3842,2.298,2.3008,2.3079,2.3136,2.3185,2.3236,2.327,2.3325,2.3375,2.3445,2.3482,2.3539,2.3604,2.3697,2.3737,2.3781,2.3795,2.38,2.3802,2.3802,2.3798,2.3797,2.3793,2.3793,2.3794,2.3794,2.3794,0,2.2953,2.3002,2.3054,2.3131,2.3176,2.3211,2.3275,2.3309,2.3359,2.3418,2.3468,2.3534,2.3591,2.3658,2.3718,2.3741,2.376,2.3754,2.3753,2.3763,2.3782,2.3773,2.3738,2.3738,2.3738,2.3738,2.3738,2.3738,2.2944,2.2994,2.3035,2.311,2.3159,2.3217,2.325,2.3297,2.3344,2.3417,2.3465,2.3509,2.3571,2.3637,2.369,2.3708,2.3728,2.3716,2.374,2.3756,2.3761,2.3766,2.3757,2.372,2.372,2.3717,2.3717,2.3717]}]]